[[{"header":{"parameterUnit":"m.s-1","parameterCategory":1,"la1":30.2992,"la2":30.254,"lo1":-89.0895,"lo2":-89.0443,"dy":0.0025,"dx":0.0025,"nx":19,"ny":19,"refTime":"2026-03-18T09:00:00:Z","depth":0,"parameterNumber":2,"parameterNumberName":"U-component_of_WINDS"},"data":[0,0,0,-0.4421,-0.4423,-0.4565,-0.4566,-0.4733,-0.4734,0,0,0,0,0,0,0,0,0,0,0,-0.4367,-0.4367,-0.442,-0.4424,-0.4565,-0.4566,-0.4733,-0.4734,0,0,0,0,0,0,0,0,0,0,0,-0.4366,-0.4367,-0.4368,-0.4424,-0.4565,-0.4566,-0.4732,-0.4631,0,0,0,0,0,0,0,0,0,0,-0.4496,-0.4434,-0.4367,-0.4368,-0.4425,-0.4565,-0.4566,-0.4627,-0.4638,-0.4661,0,-0.4677,0,-0.4708,-0.4744,-0.4745,0,0,0,-0.4433,-0.4425,-0.4473,-0.4368,-0.4426,-0.4565,-0.4504,-0.4633,-0.4645,-0.4676,-0.4679,-0.4686,-0.471,-0.4745,-0.4746,-0.4843,-0.4843,0,0,-0.4426,-0.4387,-0.4465,-0.4481,-0.4454,-0.4499,-0.4508,-0.4641,-0.4643,-0.468,-0.469,-0.4713,-0.4746,-0.4747,-0.4843,-0.4843,0,0,0,-0.4396,-0.4381,-0.4427,-0.4473,-0.45,-0.4503,-0.4514,-0.4637,-0.4655,-0.4692,-0.4715,-0.4747,-0.4749,-0.4843,-0.4843,-0.4804,0,0,0,-0.4392,-0.4364,-0.4423,-0.44,-0.4497,-0.457,-0.4507,-0.4646,-0.4662,-0.4714,-0.4747,-0.475,-0.4843,-0.4843,-0.4805,-0.4792,0,0,0,-0.4362,-0.436,-0.4376,-0.4398,-0.4457,-0.4568,-0.4594,-0.4651,-0.4676,-0.4745,-0.4751,-0.4844,-0.4843,-0.4806,-0.4794,-0.4807,0,0,0,-0.4318,-0.4341,-0.4375,-0.4409,-0.4455,-0.4542,-0.4594,-0.4661,-0.4715,-0.4748,-0.4843,-0.4843,-0.4806,-0.4795,-0.4807,-0.481,-0.4807,0,0,-0.4325,-0.434,-0.4363,-0.4398,-0.4468,-0.4523,-0.4589,-0.4677,-0.4722,-0.4801,-0.4804,-0.4805,-0.4794,-0.4807,-0.4804,-0.4801,0,0,0,-0.4352,-0.4368,-0.4395,-0.4443,-0.4509,-0.4566,-0.4648,-0.4681,-0.475,-0.4753,-0.4814,-0.4809,-0.4818,-0.4821,-0.4819,-0.483,-0.4843,-0.4843,-0.4843,-0.4306,-0.4358,-0.4401,-0.447,-0.4517,-0.4601,-0.4644,-0.4704,-0.4745,-0.4759,-0.4783,-0.4774,-0.4776,-0.4775,-0.4785,-0.4788,-0.4788,-0.4788,-0.4788,-0.4321,-0.4352,-0.4405,-0.4464,-0.4521,-0.4574,-0.4656,-0.4683,-0.4742,-0.476,-0.4771,-0.4787,-0.477,-0.4782,-0.4785,-0.4786,-0.4786,-0.4786,-0.4786,-0.4297,-0.4321,-0.4359,-0.4434,-0.4487,-0.4558,-0.4611,-0.4662,-0.471,-0.472,-0.4752,-0.4753,-0.4761,-0.4732,-0.4732,-0.4732,-0.4732,-0.4732,-0.4732,-0.4257,-0.4301,-0.4338,-0.4409,-0.4447,-0.4503,-0.4588,-0.4628,-0.4685,-0.4718,-0.4719,-0.4759,-0.4758,-0.4756,-0.4731,-0.4731,-0.4731,-0.4731,-0.4731,-0.4253,-0.4262,-0.4319,-0.4356,-0.4445,-0.4494,-0.4558,-0.4634,-0.4675,-0.47,-0.4738,-0.4728,-0.4749,-0.4751,-0.475,-0.4726,-0.4726,-0.4726,-0.4726,-0.4233,-0.4248,-0.4317,-0.4374,-0.4436,-0.4498,-0.4564,-0.463,-0.4701,-0.473,-0.4741,-0.4745,-0.4744,-0.4765,-0.4767,-0.4767,-0.4747,-0.4747,-0.4748,-0.4235,-0.4257,-0.4302,-0.4368,-0.4441,-0.4503,-0.4567,-0.4633,-0.4715,-0.4749,-0.4754,-0.4753,-0.476,-0.4758,-0.4793,-0.4795,-0.4797,0,0]},{"header":{"parameterUnit":"m.s-1","parameterCategory":1,"la1":30.2992,"la2":30.254,"lo1":-89.0895,"lo2":-89.0443,"dy":0.0025,"dx":0.0025,"nx":19,"ny":19,"refTime":"2026-03-18T09:00:00:Z","depth":0,"parameterNumber":3,"parameterNumberName":"V-component_of_WINDS"},"data":[0,0,0,-0.6402,-0.6402,-0.6432,-0.6433,-0.646,-0.646,0,0,0,0,0,0,0,0,0,0,0,-0.6385,-0.6385,-0.6402,-0.6402,-0.6432,-0.6433,-0.646,-0.646,0,0,0,0,0,0,0,0,0,0,0,-0.6385,-0.6385,-0.6385,-0.6402,-0.6432,-0.6433,-0.646,-0.6441,0,0,0,0,0,0,0,0,0,0,-0.6414,-0.6391,-0.6385,-0.6385,-0.6403,-0.6432,-0.6433,-0.6441,-0.6443,-0.6441,0,-0.6437,0,-0.6449,-0.6461,-0.6461,0,0,0,-0.6408,-0.6389,-0.6404,-0.6385,-0.6403,-0.6432,-0.6421,-0.6442,-0.6444,-0.6444,-0.6438,-0.6439,-0.6449,-0.6461,-0.6461,-0.6432,-0.6432,0,0,-0.6407,-0.6386,-0.6403,-0.6405,-0.6399,-0.6419,-0.6421,-0.6443,-0.6436,-0.6438,-0.644,-0.645,-0.6461,-0.6461,-0.6432,-0.6432,0,0,0,-0.6398,-0.6385,-0.64,-0.6404,-0.641,-0.642,-0.6422,-0.6435,-0.6441,-0.644,-0.645,-0.6461,-0.6462,-0.6433,-0.6432,-0.6391,0,0,0,-0.6397,-0.638,-0.6399,-0.6387,-0.6409,-0.6422,-0.6413,-0.644,-0.6443,-0.645,-0.6461,-0.6462,-0.6433,-0.6433,-0.6393,-0.6375,0,0,0,-0.6386,-0.6379,-0.638,-0.6385,-0.6398,-0.6423,-0.6431,-0.6441,-0.6449,-0.6461,-0.6462,-0.6434,-0.6433,-0.6395,-0.6378,-0.6361,0,0,0,-0.6368,-0.6343,-0.6379,-0.6355,-0.6397,-0.6397,-0.6431,-0.6432,-0.6437,-0.6462,-0.6433,-0.6432,-0.6396,-0.638,-0.6363,-0.6342,-0.6332,0,0,-0.6325,-0.6337,-0.6325,-0.6358,-0.6346,-0.6394,-0.6376,-0.6401,-0.6422,-0.6428,-0.6427,-0.6392,-0.6378,-0.6361,-0.6282,-0.6274,0,0,0,-0.6304,-0.6295,-0.6297,-0.6301,-0.6319,-0.6334,-0.6364,-0.6374,-0.638,-0.642,-0.6383,-0.6375,-0.6366,-0.6357,-0.635,-0.6344,-0.6428,-0.6428,-0.6428,-0.6213,-0.6241,-0.6223,-0.6254,-0.6258,-0.629,-0.6297,-0.6315,-0.6342,-0.6333,-0.6334,-0.6283,-0.6272,-0.6266,-0.626,-0.6326,-0.6326,-0.6326,-0.6326,-0.6153,-0.6144,-0.6181,-0.6176,-0.6206,-0.6203,-0.6234,-0.6253,-0.6255,-0.6284,-0.6277,-0.6305,-0.6256,-0.6252,-0.6323,-0.6324,-0.6324,-0.6324,-0.6324,-0.6096,-0.6096,-0.6108,-0.6119,-0.6124,-0.6158,-0.6158,-0.6186,-0.6212,-0.6205,-0.621,-0.6211,-0.6215,-0.6206,-0.6206,-0.6206,-0.6206,-0.6205,-0.6205,-0.6031,-0.6046,-0.6043,-0.6061,-0.6068,-0.6081,-0.6115,-0.6123,-0.614,-0.616,-0.616,-0.6188,-0.6247,-0.626,-0.6203,-0.6203,-0.6204,-0.6204,-0.6204,-0.5958,-0.5979,-0.5973,-0.598,-0.6005,-0.6009,-0.6045,-0.606,-0.6071,-0.6071,-0.6101,-0.614,-0.6154,-0.616,-0.6172,-0.6095,-0.6095,-0.6095,-0.6095,-0.5909,-0.5919,-0.592,-0.593,-0.5943,-0.5975,-0.597,-0.5996,-0.6027,-0.6037,-0.6052,-0.607,-0.6075,-0.6087,-0.6094,-0.6105,-0.6013,-0.6013,-0.6013,-0.5865,-0.5878,-0.5867,-0.5897,-0.5919,-0.5938,-0.5934,-0.5945,-0.5985,-0.601,-0.6044,-0.6048,-0.6078,-0.6086,-0.611,-0.6121,-0.6142,0,0]}]]